This is the latest recevied weather packets stored in our database for station/object VA5EVR-13. If no packets are shown the sender has not sent any weather packets the latest 10 day(s).
| Time | Temp. | Humidity | Pressure | Rain* | Wind** | Luminosity | Snow |
|---|---|---|---|---|---|---|---|
| 1777497012 | 12.22° C | 41% | 88.8 hPa | 0 mm | - | - | - |
| 1777496412 | 11.67° C | 43% | 88.8 hPa | 0 mm | - | - | - |
| 1777495812 | 11.67° C | 43% | 88.8 hPa | 0 mm | - | - | - |
| 1777495211 | 12.22° C | 43% | 88.8 hPa | 0 mm | - | - | - |
| 1777494611 | 12.22° C | 42% | 88.8 hPa | 0 mm | - | - | - |
| 1777494012 | 11.67° C | 41% | 88.8 hPa | 0 mm | - | - | - |
| 1777493412 | 11.11° C | 43% | 88.8 hPa | 0 mm | - | - | - |
| 1777492811 | 11.67° C | 41% | 88.8 hPa | 0 mm | - | - | - |
| 1777491611 | 10.56° C | 42% | 88.8 hPa | 0 mm | - | - | - |
| 1777491011 | 10.56° C | 45% | 88.8 hPa | 0 mm | - | - | - |
| 1777490412 | 11.11° C | 46% | 88.8 hPa | 0 mm | - | - | - |
| 1777489812 | 11.11° C | 45% | 88.8 hPa | 0 mm | - | - | - |
| 1777489212 | 11.11° C | 45% | 88.8 hPa | 0 mm | - | - | - |
| 1777488612 | 10.56° C | 47% | 88.8 hPa | 0 mm | - | - | - |
| 1777488011 | 10.56° C | 44% | 88.8 hPa | 0 mm | - | - | - |
| 1777487412 | 10° C | 46% | 88.8 hPa | 0 mm | - | - | - |
| 1777486812 | 9.44° C | 47% | 88.8 hPa | 0 mm | - | - | - |
| 1777486212 | 9.44° C | 46% | 88.8 hPa | 0 mm | - | - | - |
| 1777485612 | 9.44° C | 46% | 88.8 hPa | 0 mm | - | - | - |
| 1777485013 | 9.44° C | 46% | 88.8 hPa | 0 mm | - | - | - |
| 1777484412 | 9.44° C | 46% | 88.8 hPa | 0 mm | - | - | - |
| 1777483811 | 8.89° C | 45% | 88.8 hPa | 0 mm | - | - | - |
| 1777483212 | 8.89° C | 45% | 88.8 hPa | 0 mm | - | - | - |
| 1777482612 | 8.33° C | 46% | 88.8 hPa | 0 mm | - | - | - |
| 1777482012 | 8.33° C | 46% | 88.8 hPa | 0 mm | - | - | - |
* Rain latest hour (hover to see other rain measurements)
** Current wind speed in m/s (hover to see current wind gust speed)